Wind_Speed
17 17 14 13 14 13 12 14 13 11 8 6 7 8 10 13 17 19 18 18 19 18 18 19 21 21 20 20 19 18 17 16 15 15 15 13 12 11 10 8 7 7 6 5 5 4 4 4 4 4 4 4 4 4 5 5 5 6 7 8 8 9 9
19 19 16 16 16 14 15 16 15 13 10 8 8 9 9 11 15 18 18 19 20 19 20 21 22 22 22 21 21 20 19 18 17 16 15 13 12 12 11 10 9 8 7 6 6 6 6 6 5 6 6 6 6 6 6 7 6 6 6 7 8 9 9
18 18 17 17 17 15 15 14 13 13 12 10 10 10 10 10 14 18 19 19 20 20 20 21 22 22 23 22 21 21 21 20 19 17 16 15 14 13 12 11 10 9 8 8 7 7 7 7 7 7 8 8 8 8 8 8 8 8 7 7 8 8 9
18 17 16 17 17 15 14 12 12 13 13 12 12 12 12 12 14 17 19 19 19 20 20 20 21 22 22 22 22 21 21 20 19 18 18 17 15 13 12 11 10 10 9 9 8 8 8 8 8 8 9 9 9 9 9 10 10 10 9 8 8 9 9
19 18 18 19 18 16 14 13 11 13 15 14 13 13 12 12 13 16 18 18 18 19 20 21 21 22 21 21 21 21 21 21 20 20 19 17 15 13 12 12 11 10 10 9 8 8 8 8 8 9 9 9 10 10 10 10 11 11 11 10 10 10 10
19 20 22 23 20 16 14 14 12 14 16 17 15 14 11 11 12 15 17 18 18 19 19 19 19 19 19 19 20 20 20 20 20 19 17 16 15 14 14 13 12 11 10 9 8 8 8 8 9 9 9 9 10 10 10 10 11 12 13 13 12 11 11
19 21 25 24 20 16 14 15 14 16 19 20 19 16 12 11 13 15 17 18 18 18 18 17 17 17 17 18 18 18 19 19 19 18 17 16 15 15 15 14 13 12 11 9 8 8 8 8 9 9 9 10 11 11 11 11 11 12 13 13 13 13 12
20 24 27 25 20 17 16 17 16 18 22 23 19 15 12 12 13 15 17 18 18 17 17 17 18 19 19 19 19 19 19 19 19 19 18 17 17 16 15 14 13 12 10 9 9 8 8 9 9 9 10 10 11 12 12 12 12 12 12 12 13 13 13
22 24 27 24 20 19 18 18 19 22 25 23 18 14 12 13 14 15 18 19 19 18 17 18 19 20 21 21 21 21 21 20 19 19 18 17 17 17 16 14 13 12 10 10 9 8 8 9 9 9 10 11 11 12 12 13 13 13 13 12 12 12 12
23 25 26 23 21 21 20 20 21 24 24 21 17 13 12 12 13 16 18 19 19 19 19 18 18 19 20 20 21 21 20 19 19 18 17 16 16 16 16 15 14 12 11 9 8 8 8 8 8 9 10 11 11 12 12 13 13 13 13 12 11 11 11
23 25 26 26 25 24 23 23 23 23 22 19 16 13 12 12 12 14 16 19 20 20 19 18 17 17 18 19 19 19 18 18 18 17 16 16 16 16 16 15 14 12 10 9 8 8 8 8 8 9 10 11 11 12 12 12 12 13 13 12 11 11 10
21 23 25 27 28 27 26 25 24 23 20 18 16 15 14 13 12 13 15 19 20 20 20 19 17 17 16 17 17 17 18 18 18 17 17 17 16 16 16 15 13 11 10 9 9 9 9 9 9 10 11 11 11 11 12 12 12 12 12 12 11 11 10
19 21 23 26 28 28 26 24 24 23 21 18 17 17 16 14 13 13 14 17 19 20 20 19 18 17 17 16 16 17 17 17 18 19 19 18 17 16 15 14 13 12 11 10 10 10 9 10 10 11 11 11 11 11 11 11 11 11 11 11 11 11 10
17 20 21 24 27 27 25 24 24 24 23 21 20 19 18 16 15 14 13 15 17 18 19 18 18 18 18 18 17 17 17 18 19 19 19 19 17 16 15 14 13 12 12 11 11 11 11 11 11 11 10 10 11 10 10 10 11 11 11 10 10 10 9
15 17 19 22 24 25 25 25 26 26 24 23 22 21 20 17 16 15 14 13 15 17 18 18 19 19 18 18 18 19 19 19 19 18 18 17 16 15 14 14 13 13 13 13 12 12 12 12 11 10 10 11 10 9 9 10 10 10 10 10 9 8 7
14 17 18 20 22 23 24 25 25 25 25 26 25 23 21 18 16 15 13 12 13 15 16 16 16 16 17 17 18 19 20 19 19 18 17 16 16 15 15 15 15 15 14 14 14 13 13 12 11 11 11 11 10 9 9 10 10 9 9 8 8 6 5
15 18 18 18 19 21 22 23 24 26 27 27 25 24 21 19 17 16 14 14 13 13 13 13 13 13 14 15 16 17 17 17 17 17 17 17 17 17 17 17 17 17 17 16 15 14 13 12 12 12 12 12 10 9 10 10 9 8 8 7 6 5 5
13 16 17 16 17 19 21 22 25 27 27 26 24 23 23 22 20 17 15 14 13 13 12 12 11 12 12 13 13 12 12 13 14 14 15 15 16 17 18 19 19 19 19 17 16 15 14 13 12 12 13 12 11 10 10 10 9 8 8 7 7 7 6
13 14 16 17 18 19 21 22 24 26 26 24 22 22 22 22 20 19 17 16 16 15 14 13 12 12 13 12 11 10 10 11 10 11 12 13 15 17 18 18 19 19 19 18 18 17 15 14 13 13 13 13 11 11 11 10 9 9 9 9 8 8 7
15 17 18 19 19 20 21 23 25 26 26 26 25 23 23 22 21 21 21 21 20 18 17 15 14 14 15 14 12 11 11 10 9 9 10 11 13 15 16 16 17 18 18 19 19 18 16 15 15 14 13 13 12 11 10 10 10 10 11 11 10 9 8
18 18 18 18 19 20 22 24 28 29 29 29 28 27 26 24 23 24 24 23 22 21 19 18 17 17 16 15 13 12 12 11 10 10 10 11 12 13 13 14 15 16 17 19 20 19 18 17 16 15 14 13 12 11 11 11 11 11 11 11 11 9 8
20 18 18 18 18 18 20 23 27 30 30 30 29 29 28 27 27 27 26 25 24 22 21 20 19 18 17 16 14 14 13 13 12 11 11 11 11 11 11 13 14 15 17 19 20 20 19 18 16 15 15 14 13 12 12 12 12 12 12 12 12 10 9
23 22 20 19 17 16 16 18 19 22 25 27 27 27 27 28 28 28 27 26 25 24 22 21 19 18 17 16 15 15 16 16 15 14 14 13 12 11 11 13 15 17 18 19 20 20 19 18 17 17 17 17 16 14 14 14 14 13 13 13 13 12 11
26 24 23 21 18 17 16 17 17 17 19 22 23 25 25 26 26 26 27 26 25 25 23 21 20 19 18 17 16 17 18 19 19 18 17 16 15 14 13 13 15 18 20 20 20 20 20 20 20 20 19 18 17 16 16 16 15 14 14 14 14 14 14
28 27 26 23 20 19 18 17 17 18 19 19 20 22 24 24 25 25 26 26 26 26 25 23 21 21 20 20 20 20 20 21 21 21 20 18 17 17 17 16 15 17 20 21 21 21 22 23 23 21 20 19 18 18 17 17 17 16 15 15 16 16 17
29 28 26 23 22 21 19 18 18 18 19 19 19 20 21 22 23 24 24 25 26 26 26 25 26 26 26 26 26 24 23 23 23 24 23 21 21 20 19 18 16 15 17 20 22 23 24 24 23 22 21 20 19 19 18 18 19 19 18 18 19 20 22
29 27 26 24 23 22 20 18 18 19 20 20 19 20 20 21 22 23 24 24 24 25 26 27 29 29 29 28 28 27 26 25 25 26 25 25 24 23 21 20 18 16 15 17 20 22 23 24 24 22 21 21 20 19 20 20 21 21 20 21 22 23 25
32 29 27 26 26 25 23 21 20 20 20 20 21 22 22 23 24 24 25 25 25 26 27 28 30 30 30 30 29 28 28 27 26 27 28 28 27 26 25 23 21 18 16 16 17 19 21 23 24 24 23 22 21 21 21 22 23 23 23 23 24 25 25
35 33 30 29 29 29 26 24 23 21 21 21 22 23 25 26 27 27 28 28 28 28 29 30 31 31 31 31 31 30 30 30 29 29 29 30 30 29 28 27 25 21 19 18 17 17 20 22 24 25 24 23 22 22 23 24 25 25 25 25 25 24 24
37 35 33 32 32 31 30 28 26 24 23 22 22 23 24 26 27 28 28 28 28 29 29 30 31 32 32 32 32 32 32 33 33 32 32 32 32 32 31 31 29 25 22 21 20 19 19 22 24 24 24 24 24 24 25 26 27 26 25 25 25 24 24
40 38 37 35 34 34 32 30 28 27 25 23 22 22 22 23 25 25 26 27 28 29 30 31 31 32 32 32 33 33 34 34 35 36 35 35 35 34 33 33 32 30 26 24 23 22 21 22 23 24 24 24 24 25 26 27 26 26 25 25 26 27 28
40 39 39 39 37 36 36 34 32 30 28 26 25 23 22 22 23 23 24 26 27 28 29 31 31 31 32 31 31 31 32 33 34 35 36 37 37 36 35 35 35 34 31 28 26 25 25 25 24 24 24 24 25 26 27 26 25 26 26 27 28 30 31
37 37 38 40 39 38 38 38 37 35 32 30 28 26 24 23 23 23 24 24 25 26 27 29 30 30 30 30 29 29 29 30 31 34 36 37 37 37 37 36 36 36 35 32 29 28 28 28 28 28 28 28 28 29 29 28 28 29 30 31 32 33 34
37 37 38 39 39 38 39 39 39 38 36 34 33 30 27 25 25 25 25 25 25 25 26 27 28 29 29 28 27 27 27 27 29 31 33 35 36 37 37 37 37 37 36 34 32 31 30 31 32 32 32 33 33 33 33 32 33 33 34 35 36 37 38
41 39 37 36 36 36 37 38 38 37 37 36 35 33 30 27 27 27 27 27 27 26 26 27 27 28 29 28 27 27 26 26 27 28 29 31 33 35 35 36 37 37 37 36 35 33 33 33 34 35 35 36 36 37 37 37 37 37 37 38 39 39 40
41 39 37 37 36 34 36 38 38 38 37 37 36 34 32 29 28 28 28 28 28 28 27 28 28 29 29 29 29 28 27 27 26 27 27 28 30 32 33 34 35 36 37 37 36 35 34 35 35 36 36 37 38 38 39 39 39 39 40 40 41 41 42
43 40 38 39 39 37 36 38 39 40 39 38 36 35 33 31 30 29 29 29 29 29 29 29 29 29 29 29 29 29 29 29 29 29 29 29 29 30 31 33 34 35 36 36 37 36 36 36 37 38 38 39 39 40 41 41 41 42 42 43 44 44 45
47 45 41 40 41 40 38 39 40 40 40 40 38 36 35 33 32 31 30 30 30 30 30 30 30 30 29 29 29 29 30 30 31 31 31 31 31 31 32 33 34 36 36 37 37 38 38 38 39 40 41 42 42 42 43 44 44 44 45 45 46 46 47
Wind_Direction
195 189 190 198 212 222 240 252 255 254 250 242 229 214 212 216 212 206 204 203 201 201 200 199 201 201 199 196 191 186 183 183 188 189 187 188 188 190 196 199 199 200 205 208 206 213 225 234 239 245 260 274 285 296 303 310 321 334 344 352 357 2 4
192 186 187 195 201 214 239 250 255 258 250 241 233 217 208 217 218 210 205 202 200 200 199 198 199 199 199 196 190 185 182 182 187 189 187 187 188 192 197 202 206 207 210 214 218 223 228 236 245 251 260 268 275 282 288 293 298 305 317 330 341 349 353
206 197 193 201 210 221 235 241 246 250 243 242 243 226 209 213 220 216 209 204 201 200 201 200 200 200 200 198 192 186 183 183 185 186 186 188 191 194 196 201 206 207 208 212 220 229 235 242 250 258 264 267 271 274 278 282 285 289 294 303 316 328 337
235 223 210 214 219 216 219 222 228 239 238 238 243 234 216 208 213 216 213 208 204 201 202 203 204 205 204 201 195 189 185 184 185 186 188 191 192 192 193 197 201 203 205 209 218 229 240 249 254 261 266 269 271 272 272 274 277 280 282 284 291 302 314
241 233 216 210 210 209 217 224 227 241 241 235 238 238 225 212 209 213 215 213 208 203 202 204 206 207 207 204 199 193 187 186 188 190 192 192 190 187 189 193 195 198 203 207 214 224 234 247 256 260 264 268 271 272 271 269 270 273 276 276 276 281 290
232 224 205 195 199 209 225 234 238 248 244 233 233 234 226 217 213 214 216 215 212 208 207 207 208 209 209 207 202 197 192 191 192 194 194 192 189 187 189 191 191 194 199 202 209 218 229 241 251 259 266 269 272 272 271 268 267 266 269 272 272 273 277
220 206 195 191 199 212 225 236 244 247 237 227 225 225 219 215 214 216 218 217 215 212 208 206 204 204 206 206 203 199 196 195 194 194 194 191 188 190 193 192 191 194 195 198 205 215 226 237 247 257 265 270 272 274 272 268 265 263 264 267 271 273 273
204 194 197 198 202 207 219 232 240 235 226 221 220 217 213 214 213 212 215 216 215 211 207 204 200 198 199 200 199 197 196 196 194 194 195 193 191 194 196 195 195 196 195 200 209 217 228 239 249 257 263 267 269 271 273 270 266 262 260 262 266 270 272
195 192 198 199 198 201 213 227 231 223 217 217 217 210 208 210 207 206 210 212 211 208 207 205 202 199 199 198 196 196 196 195 195 196 198 197 197 197 197 197 199 199 200 208 216 225 234 242 249 256 262 266 268 268 268 269 268 267 264 262 262 264 268
192 192 195 195 195 199 209 219 218 212 211 213 211 203 201 201 199 202 207 209 210 208 207 207 206 204 203 202 200 199 198 197 197 199 200 200 200 199 197 198 199 201 206 213 220 228 237 241 245 252 258 263 267 269 268 268 268 267 265 264 262 261 262
194 195 195 193 194 198 204 209 208 206 207 207 202 194 188 186 189 196 201 206 208 209 210 210 209 209 207 207 206 203 201 200 200 201 201 201 202 200 199 199 200 203 209 215 220 226 232 236 241 248 255 262 267 270 271 270 268 267 266 263 260 256 255
198 198 197 194 194 197 201 204 204 204 204 200 194 189 181 177 180 187 194 202 206 209 211 210 209 210 211 211 210 207 205 203 202 202 203 203 203 202 202 202 203 206 210 215 220 225 229 233 240 247 254 263 269 271 272 272 270 269 268 266 262 255 249
201 200 199 197 195 197 200 202 204 206 203 197 192 186 180 177 179 182 188 197 203 206 208 208 208 208 208 209 210 210 209 207 206 205 204 204 204 204 204 205 206 209 213 217 221 226 231 234 238 244 252 262 268 271 273 274 274 272 270 268 266 261 255
205 202 198 196 196 196 198 200 206 210 205 198 193 186 181 180 182 183 183 188 194 197 199 201 204 204 205 206 207 209 209 208 208 208 208 208 207 207 208 209 210 213 216 220 224 228 232 234 237 242 251 260 264 268 271 271 271 271 270 269 268 267 267
213 207 198 194 195 196 197 201 208 210 205 199 194 189 184 182 184 184 182 181 182 183 186 189 193 197 199 199 201 204 206 207 208 209 210 212 211 210 212 214 215 218 220 222 225 229 232 234 236 241 248 255 259 263 266 264 264 265 267 269 270 270 270
217 211 202 193 192 194 199 206 208 204 200 198 196 190 185 183 184 185 184 180 174 172 175 177 181 186 188 189 193 199 203 205 207 209 211 211 212 213 215 217 220 222 223 223 225 229 232 233 236 241 246 249 250 253 257 259 261 262 262 265 268 266 254
216 211 206 197 188 187 194 201 201 196 195 197 195 190 186 183 183 187 189 183 175 173 172 168 170 173 174 179 189 195 199 203 206 210 212 213 215 217 219 221 223 224 225 227 228 229 230 231 233 239 243 244 243 244 248 252 255 258 259 259 258 254 242
215 208 206 200 189 182 182 189 193 192 192 194 193 190 186 185 184 187 189 187 183 185 182 175 172 173 174 181 190 193 197 203 208 213 218 221 225 226 227 228 229 229 229 229 230 229 228 227 229 234 239 241 240 242 246 247 246 247 249 250 249 247 243
211 204 202 200 196 186 177 180 187 190 192 194 196 193 189 187 185 184 188 192 194 195 193 187 183 183 185 190 193 192 195 201 207 214 221 227 232 235 237 238 239 238 236 232 230 229 227 225 226 229 236 239 236 239 244 242 236 233 235 238 240 240 240
209 205 203 201 202 197 187 181 181 186 190 194 198 198 194 191 188 187 190 194 197 198 198 195 194 195 196 198 198 198 201 204 207 213 221 228 233 238 242 244 244 243 239 234 231 229 228 227 224 223 229 233 233 236 241 237 228 227 229 231 232 232 234
212 207 206 203 200 199 195 188 182 183 188 192 197 200 198 194 194 196 196 195 196 198 198 197 197 199 203 205 205 209 214 219 221 223 226 230 234 238 243 246 246 242 237 233 228 226 227 226 223 221 223 228 232 234 236 235 232 231 233 234 235 233 235
215 208 205 205 199 194 195 192 186 184 189 194 198 200 198 195 197 200 201 199 199 200 200 199 199 201 206 209 212 217 223 229 235 239 241 240 237 236 240 245 246 242 236 230 225 222 224 226 225 222 219 223 229 231 233 236 237 238 239 242 246 246 246
215 210 206 208 209 204 203 203 197 191 193 198 201 204 202 200 199 200 202 202 203 204 205 204 204 206 210 212 216 222 227 232 238 243 248 250 247 242 241 243 244 243 238 231 224 222 223 225 225 222 219 220 223 227 232 236 238 240 244 251 258 263 265
214 213 211 212 217 216 214 215 213 208 205 204 205 207 208 207 205 204 204 205 207 209 211 210 210 212 215 218 221 224 228 233 238 243 247 253 255 252 249 247 245 244 241 236 229 224 221 222 222 222 220 220 222 225 229 235 239 243 250 257 264 269 271
215 216 215 216 219 221 221 220 220 220 218 214 212 210 209 210 210 209 208 209 211 213 215 216 218 221 222 225 227 227 227 230 236 242 246 252 257 259 258 257 254 247 242 239 235 229 225 223 222 221 221 222 224 225 226 229 235 240 244 249 255 258 260
219 219 218 220 223 225 226 226 226 227 225 222 219 217 214 213 214 215 215 215 214 216 218 220 223 226 227 229 230 229 228 228 230 236 242 248 252 256 258 261 263 257 247 242 239 234 230 226 223 221 221 223 226 226 226 226 230 234 238 242 245 248 251
223 223 221 222 225 229 229 228 227 227 226 223 220 219 217 216 216 218 220 221 221 221 222 224 227 229 231 232 232 232 232 231 229 231 235 241 247 250 253 256 260 261 255 249 245 240 234 228 222 219 220 223 225 225 226 228 231 234 238 242 245 250 253
225 225 224 224 227 230 229 226 224 222 222 219 216 215 215 212 212 214 216 219 221 223 225 228 231 233 235 236 236 236 236 236 233 231 231 234 240 245 249 252 254 255 254 252 251 247 238 229 224 221 220 222 225 227 228 230 232 234 237 243 249 254 257
228 229 228 227 229 231 228 224 221 219 217 216 213 213 214 212 211 211 212 215 217 220 222 226 230 233 235 236 237 237 236 236 235 234 232 232 234 238 243 247 249 251 252 251 250 248 242 235 231 227 223 222 225 229 231 232 234 236 241 247 253 258 261
230 233 234 231 230 232 230 224 220 218 215 213 210 210 213 215 215 215 215 216 218 219 221 223 225 228 230 231 232 232 231 230 229 230 231 232 232 233 237 241 244 247 249 249 247 243 240 238 236 233 229 227 228 231 233 234 237 242 247 252 257 261 265
230 234 236 235 232 233 233 229 225 222 220 216 213 211 212 214 217 218 218 218 218 220 223 224 226 228 229 230 230 230 230 229 228 229 230 230 230 231 233 237 242 244 245 247 246 243 239 238 238 236 235 234 233 235 237 239 243 247 251 254 256 259 263
229 233 234 233 232 232 234 234 230 227 226 224 221 219 219 218 219 220 221 221 220 220 222 224 227 229 230 232 232 232 232 232 230 230 231 230 230 229 230 233 238 241 242 243 245 244 242 240 240 240 239 238 239 242 244 246 248 251 252 254 256 259 262
229 231 229 228 228 229 232 234 234 232 231 230 228 227 227 227 226 224 224 225 223 222 222 223 225 227 229 230 231 230 231 231 231 230 231 231 230 228 229 231 234 237 240 242 245 246 245 243 243 243 243 243 244 246 248 249 251 252 254 257 260 262 263
227 228 225 223 224 226 228 232 233 233 232 231 231 231 229 229 230 229 228 228 227 226 225 225 226 227 227 227 228 228 229 230 230 230 230 231 231 229 229 230 232 234 237 240 244 246 246 246 245 244 244 245 247 249 250 251 253 255 257 260 262 265 266
223 225 228 227 226 226 228 232 234 234 233 232 233 233 231 229 228 229 228 229 229 228 228 229 229 230 230 230 229 229 230 231 233 234 234 234 233 232 231 231 232 234 235 238 242 244 245 246 246 246 246 247 249 251 252 253 256 258 260 262 264 267 269
221 225 232 233 231 230 230 231 234 236 236 235 235 235 234 231 229 228 228 229 230 230 230 231 231 231 232 232 233 233 233 233 234 236 236 236 236 236 236 236 236 237 237 239 241 243 245 246 247 247 248 249 251 253 254 256 259 261 263 265 267 269 271
220 226 234 236 236 236 235 232 233 236 238 238 238 237 237 235 232 230 230 230 231 231 231 232 233 234 234 235 235 236 236 236 236 236 237 237 237 237 239 240 240 241 241 241 242 243 244 246 248 249 250 251 252 254 256 259 261 263 265 267 268 269 270
225 228 236 240 240 240 238 234 233 234 237 240 241 239 239 238 235 234 233 232 233 234 234 234 235 236 237 238 238 239 239 238 238 239 239 240 239 239 240 241 242 243 244 244 245 245 245 246 248 249 250 252 254 256 258 261 263 265 267 268 269 270 270
Height
5884 5884 5885 5887 5889 5891 5893 5894 5895 5897 5898 5899 5900 5900 5902 5904 5906 5908 5909 5911 5912 5914 5917 5920 5922 5924 5925 5927 5928 5930 5932 5934 5935 5937 5938 5940 5942 5943 5944 5945 5946 5947 5948 5949 5950 5951 5951 5952 5952 5952 5953 5953 5954 5954 5954 5954 5954 5954 5954 5953 5953 5952 5952
5882 5882 5883 5885 5887 5889 5891 5893 5894 5895 5897 5898 5899 5899 5900 5903 5905 5907 5908 5910 5911 5913 5915 5918 5920 5922 5924 5925 5927 5928 5930 5932 5933 5935 5937 5939 5940 5942 5943 5944 5945 5946 5947 5948 5949 5949 5950 5951 5951 5952 5952 5953 5953 5953 5953 5953 5953 5953 5953 5953 5953 5952 5952
5880 5881 5882 5884 5886 5888 5889 5891 5892 5894 5895 5897 5898 5898 5899 5900 5903 5905 5907 5908 5910 5912 5914 5916 5919 5921 5922 5924 5925 5927 5928 5930 5931 5934 5936 5937 5939 5940 5941 5942 5943 5945 5946 5947 5947 5948 5949 5950 5950 5951 5951 5952 5952 5952 5953 5952 5952 5952 5953 5952 5952 5952 5952
5877 5879 5881 5882 5884 5885 5886 5888 5890 5892 5893 5895 5896 5897 5897 5898 5901 5903 5906 5908 5909 5911 5913 5916 5918 5920 5922 5923 5925 5926 5927 5929 5930 5932 5933 5935 5936 5938 5939 5941 5942 5943 5944 5945 5946 5947 5948 5948 5949 5950 5950 5951 5951 5951 5952 5952 5951 5951 5951 5952 5951 5951 5951
5874 5876 5878 5879 5882 5883 5884 5886 5888 5890 5892 5893 5894 5895 5896 5897 5899 5902 5905 5907 5909 5910 5912 5914 5916 5919 5921 5922 5924 5925 5926 5927 5929 5930 5932 5933 5935 5936 5938 5939 5940 5942 5943 5944 5945 5946 5947 5947 5948 5948 5949 5949 5950 5950 5951 5951 5951 5950 5950 5951 5951 5951 5951
5871 5874 5875 5877 5879 5881 5882 5884 5886 5888 5890 5892 5893 5894 5895 5897 5899 5901 5903 5906 5908 5909 5911 5913 5915 5918 5920 5922 5923 5925 5926 5927 5928 5929 5931 5932 5933 5935 5936 5937 5939 5940 5941 5943 5944 5945 5945 5946 5947 5947 5947 5948 5948 5949 5949 5950 5950 5950 5949 5949 5949 5950 5950
5869 5871 5873 5875 5877 5879 5880 5882 5884 5887 5888 5889 5890 5892 5894 5896 5898 5900 5902 5905 5907 5909 5910 5912 5914 5916 5918 5920 5922 5924 5925 5926 5927 5928 5929 5931 5932 5933 5934 5935 5937 5938 5940 5941 5942 5943 5944 5945 5945 5946 5946 5946 5947 5947 5948 5948 5949 5949 5949 5948 5948 5949 5949
5867 5869 5871 5873 5875 5876 5878 5880 5882 5884 5886 5887 5888 5891 5893 5894 5896 5899 5901 5903 5905 5907 5909 5911 5913 5914 5916 5918 5920 5922 5923 5924 5925 5926 5927 5929 5930 5931 5932 5934 5935 5937 5939 5940 5941 5942 5943 5943 5944 5944 5945 5945 5945 5945 5946 5946 5947 5947 5948 5948 5948 5948 5948
5863 5866 5868 5870 5872 5874 5876 5878 5880 5882 5883 5885 5887 5889 5891 5893 5895 5897 5900 5902 5904 5906 5908 5909 5911 5913 5914 5916 5918 5919 5921 5923 5924 5925 5926 5928 5928 5930 5931 5933 5934 5936 5937 5938 5939 5940 5941 5942 5942 5943 5943 5943 5944 5944 5944 5944 5945 5945 5946 5947 5947 5947 5947
5860 5863 5865 5867 5869 5871 5874 5876 5877 5879 5881 5884 5886 5888 5890 5892 5893 5895 5898 5900 5902 5904 5906 5908 5910 5911 5913 5915 5916 5918 5920 5921 5923 5924 5926 5927 5928 5929 5930 5931 5933 5934 5935 5937 5938 5939 5939 5940 5940 5941 5941 5941 5942 5942 5942 5943 5943 5943 5944 5945 5945 5946 5946
5857 5859 5861 5864 5866 5869 5871 5873 5875 5877 5880 5883 5885 5887 5889 5890 5892 5894 5896 5898 5900 5902 5904 5906 5908 5910 5912 5914 5915 5917 5919 5920 5921 5923 5924 5925 5926 5927 5929 5930 5931 5933 5934 5935 5936 5937 5937 5938 5939 5939 5939 5940 5940 5940 5940 5941 5941 5941 5942 5943 5943 5944 5944
5854 5857 5859 5861 5863 5866 5868 5870 5873 5876 5879 5881 5884 5886 5888 5889 5891 5892 5894 5896 5898 5900 5902 5904 5906 5909 5911 5913 5915 5916 5917 5919 5920 5921 5922 5923 5924 5926 5927 5928 5930 5931 5932 5933 5934 5935 5936 5936 5937 5937 5938 5938 5938 5938 5939 5939 5939 5939 5940 5940 5941 5942 5942
5852 5854 5856 5859 5861 5863 5866 5868 5871 5874 5877 5880 5882 5884 5886 5888 5889 5891 5893 5894 5896 5898 5900 5903 5905 5907 5909 5911 5913 5914 5916 5917 5918 5918 5919 5921 5922 5924 5925 5927 5928 5929 5930 5931 5932 5933 5934 5935 5935 5936 5936 5936 5937 5937 5937 5937 5937 5938 5938 5938 5939 5939 5940
5849 5852 5854 5856 5859 5861 5864 5867 5869 5872 5875 5878 5880 5882 5884 5886 5888 5889 5891 5893 5895 5897 5899 5901 5903 5905 5907 5909 5911 5912 5914 5915 5915 5916 5918 5919 5921 5922 5924 5925 5926 5927 5928 5929 5930 5931 5932 5933 5933 5934 5935 5935 5935 5935 5936 5936 5936 5936 5936 5936 5937 5937 5938
5847 5849 5852 5854 5856 5859 5862 5864 5867 5870 5873 5876 5878 5880 5882 5884 5886 5888 5890 5892 5893 5895 5897 5899 5901 5903 5904 5906 5908 5910 5911 5912 5914 5915 5916 5918 5919 5921 5922 5923 5924 5925 5926 5927 5928 5929 5930 5931 5931 5932 5933 5933 5934 5934 5934 5934 5934 5934 5934 5935 5935 5936 5936
5844 5847 5850 5852 5854 5857 5860 5862 5865 5868 5871 5874 5876 5878 5880 5883 5885 5887 5889 5891 5893 5894 5896 5897 5899 5901 5903 5904 5906 5907 5909 5910 5912 5913 5915 5916 5917 5918 5919 5920 5921 5922 5923 5924 5926 5927 5928 5929 5929 5930 5931 5931 5932 5933 5933 5933 5933 5933 5933 5934 5934 5934 5935
5842 5844 5847 5850 5852 5855 5858 5860 5863 5866 5869 5872 5874 5876 5879 5881 5884 5886 5888 5890 5892 5893 5895 5896 5898 5900 5901 5903 5904 5905 5907 5908 5910 5911 5913 5914 5915 5916 5917 5918 5919 5920 5921 5922 5923 5925 5926 5927 5928 5928 5929 5929 5930 5931 5931 5931 5932 5932 5932 5932 5933 5933 5933
5840 5842 5845 5848 5851 5853 5856 5858 5861 5864 5867 5870 5873 5875 5877 5880 5882 5884 5886 5888 5890 5892 5893 5895 5897 5898 5900 5901 5903 5904 5906 5907 5908 5909 5911 5912 5912 5913 5914 5915 5916 5917 5918 5920 5921 5922 5923 5925 5925 5926 5927 5927 5928 5929 5929 5930 5930 5931 5931 5931 5931 5932 5932
5838 5840 5843 5846 5849 5852 5855 5857 5860 5863 5866 5869 5871 5874 5876 5878 5880 5882 5885 5887 5888 5890 5892 5894 5895 5897 5899 5900 5902 5903 5905 5906 5907 5908 5909 5910 5910 5911 5911 5913 5914 5915 5916 5918 5918 5919 5921 5922 5923 5924 5925 5926 5927 5927 5928 5928 5929 5929 5929 5930 5930 5930 5931
5836 5838 5841 5844 5847 5849 5852 5855 5857 5860 5863 5866 5869 5871 5874 5876 5878 5880 5882 5884 5886 5888 5890 5892 5894 5896 5897 5899 5900 5902 5903 5904 5905 5906 5907 5907 5908 5908 5909 5911 5912 5913 5914 5915 5916 5917 5919 5920 5921 5922 5923 5924 5925 5925 5926 5926 5927 5927 5928 5928 5929 5929 5929
5833 5835 5838 5841 5844 5846 5849 5852 5854 5857 5860 5863 5865 5867 5870 5872 5875 5877 5879 5882 5884 5886 5888 5890 5892 5894 5896 5897 5899 5900 5901 5902 5903 5904 5904 5905 5906 5906 5907 5908 5909 5910 5911 5912 5913 5915 5916 5917 5918 5920 5921 5921 5922 5923 5924 5924 5925 5925 5926 5926 5926 5927 5928
5831 5833 5836 5838 5841 5844 5846 5849 5852 5855 5857 5859 5861 5864 5866 5869 5871 5874 5876 5879 5882 5884 5886 5888 5890 5892 5894 5895 5897 5898 5899 5900 5900 5901 5902 5903 5904 5904 5905 5906 5907 5907 5908 5909 5910 5911 5913 5914 5916 5917 5918 5919 5920 5921 5921 5922 5922 5923 5923 5923 5923 5924 5925
5828 5831 5833 5835 5838 5841 5843 5846 5849 5851 5854 5856 5858 5861 5863 5866 5868 5871 5873 5876 5878 5881 5883 5885 5887 5890 5891 5893 5894 5895 5896 5897 5898 5899 5899 5900 5901 5902 5903 5903 5904 5904 5905 5906 5908 5909 5910 5911 5913 5914 5915 5916 5917 5918 5919 5919 5919 5920 5920 5920 5920 5921 5922
5826 5828 5831 5833 5835 5838 5840 5842 5845 5848 5850 5853 5856 5858 5861 5863 5866 5868 5870 5873 5875 5877 5880 5882 5884 5887 5889 5890 5892 5893 5894 5894 5895 5896 5897 5898 5899 5900 5900 5901 5901 5901 5902 5904 5905 5906 5907 5908 5909 5910 5912 5913 5914 5915 5916 5916 5916 5917 5917 5917 5918 5918 5919
5823 5825 5828 5830 5833 5835 5837 5840 5842 5844 5847 5849 5852 5855 5857 5859 5862 5864 5867 5869 5871 5874 5876 5879 5882 5883 5885 5887 5888 5890 5891 5892 5893 5894 5894 5895 5896 5897 5897 5898 5898 5899 5900 5901 5903 5904 5904 5905 5906 5908 5909 5911 5912 5912 5913 5914 5914 5914 5915 5915 5916 5916 5917
5819 5822 5826 5828 5830 5832 5835 5837 5839 5841 5843 5846 5849 5851 5853 5856 5858 5861 5863 5865 5867 5870 5873 5876 5877 5879 5881 5882 5884 5886 5888 5889 5891 5891 5892 5893 5893 5894 5895 5895 5896 5896 5897 5898 5899 5901 5902 5903 5904 5906 5907 5908 5909 5909 5910 5911 5911 5912 5912 5913 5914 5914 5915
5816 5820 5823 5825 5827 5830 5832 5835 5837 5839 5840 5843 5845 5847 5850 5852 5855 5857 5859 5862 5864 5867 5870 5871 5873 5874 5876 5878 5880 5882 5884 5886 5887 5889 5890 5890 5890 5891 5892 5893 5894 5894 5895 5895 5896 5897 5899 5900 5901 5903 5904 5905 5905 5906 5907 5907 5908 5908 5909 5910 5911 5911 5911
5814 5817 5821 5823 5825 5827 5830 5832 5834 5836 5838 5840 5842 5844 5846 5848 5851 5853 5855 5858 5860 5863 5865 5867 5869 5871 5873 5875 5877 5878 5880 5882 5884 5885 5886 5887 5888 5889 5889 5890 5891 5892 5893 5893 5894 5895 5896 5897 5898 5899 5900 5901 5902 5903 5904 5904 5904 5905 5906 5907 5908 5908 5908
5813 5815 5818 5821 5822 5824 5827 5830 5831 5833 5835 5837 5839 5841 5843 5845 5847 5849 5851 5853 5856 5858 5861 5863 5865 5867 5868 5870 5872 5874 5876 5877 5879 5881 5882 5884 5885 5886 5886 5887 5888 5890 5891 5891 5892 5892 5893 5894 5895 5896 5897 5898 5899 5900 5900 5901 5901 5902 5904 5904 5904 5905 5905
5810 5812 5814 5817 5819 5821 5823 5826 5828 5830 5832 5834 5836 5838 5840 5841 5843 5845 5847 5850 5852 5854 5856 5858 5860 5862 5864 5866 5867 5869 5871 5872 5874 5875 5877 5879 5881 5882 5883 5884 5885 5887 5888 5889 5889 5890 5891 5892 5892 5894 5895 5895 5896 5897 5897 5897 5898 5900 5901 5901 5901 5901 5901
5807 5809 5810 5812 5815 5817 5819 5821 5824 5826 5828 5830 5833 5835 5837 5839 5840 5842 5844 5846 5848 5850 5852 5853 5855 5857 5859 5861 5862 5864 5866 5867 5869 5870 5872 5874 5876 5878 5879 5881 5881 5883 5884 5885 5886 5887 5888 5889 5890 5891 5891 5892 5893 5893 5893 5894 5896 5897 5897 5897 5897 5897 5897
5804 5806 5807 5809 5811 5813 5815 5817 5820 5822 5824 5827 5829 5832 5834 5836 5837 5839 5841 5842 5844 5846 5848 5849 5851 5853 5854 5856 5858 5860 5861 5862 5864 5866 5867 5869 5871 5873 5875 5877 5877 5879 5880 5881 5883 5884 5885 5886 5887 5887 5888 5889 5889 5889 5890 5891 5893 5893 5893 5893 5893 5893 5893
5800 5802 5804 5805 5807 5810 5811 5813 5816 5819 5821 5823 5826 5828 5830 5832 5834 5836 5837 5839 5841 5842 5844 5846 5847 5849 5851 5852 5854 5855 5857 5858 5859 5861 5862 5864 5866 5868 5870 5872 5873 5874 5876 5877 5879 5880 5881 5882 5883 5884 5885 5885 5885 5885 5886 5888 5889 5889 5889 5889 5889 5888 5888
5796 5797 5799 5801 5803 5806 5808 5809 5812 5815 5817 5819 5822 5824 5827 5829 5831 5833 5834 5836 5837 5839 5841 5843 5844 5846 5847 5848 5850 5851 5853 5854 5855 5856 5858 5859 5861 5863 5865 5866 5868 5870 5871 5873 5874 5875 5877 5878 5879 5879 5880 5880 5880 5881 5882 5883 5884 5884 5885 5884 5884 5884 5883
5791 5793 5795 5798 5800 5802 5804 5806 5808 5810 5813 5815 5818 5820 5824 5826 5828 5830 5831 5833 5834 5836 5838 5840 5841 5843 5844 5845 5847 5848 5849 5850 5852 5853 5854 5856 5857 5859 5860 5862 5863 5865 5867 5868 5869 5870 5872 5873 5873 5875 5875 5876 5876 5877 5877 5878 5879 5879 5879 5879 5879 5878 5878
5787 5790 5792 5794 5796 5798 5800 5802 5804 5806 5809 5811 5814 5816 5819 5822 5824 5826 5828 5829 5831 5833 5835 5836 5838 5839 5841 5842 5843 5845 5846 5847 5848 5850 5851 5852 5853 5855 5856 5857 5859 5860 5862 5863 5864 5865 5866 5867 5868 5870 5871 5871 5871 5872 5872 5873 5873 5874 5874 5874 5874 5873 5873
5782 5785 5788 5790 5792 5794 5796 5799 5801 5803 5805 5807 5809 5812 5815 5817 5820 5822 5824 5826 5827 5829 5831 5833 5834 5836 5837 5839 5840 5841 5842 5844 5845 5846 5847 5848 5849 5851 5852 5853 5855 5856 5857 5858 5859 5860 5861 5862 5863 5865 5865 5866 5866 5867 5867 5867 5868 5868 5868 5868 5868 5868 5867
5776 5780 5783 5785 5788 5790 5792 5794 5797 5799 5801 5803 5805 5808 5810 5813 5815 5818 5819 5821 5823 5825 5827 5828 5830 5832 5833 5834 5836 5837 5838 5840 5841 5842 5843 5844 5846 5847 5848 5849 5850 5851 5852 5853 5854 5855 5856 5857 5858 5859 5860 5861 5861 5862 5862 5862 5862 5862 5862 5862 5862 5862 5861